TimeEST,TemperatureF,Dew PointF,Humidity,Sea Level PressureIn,VisibilityMPH,Wind Direction,Wind SpeedMPH,Gust SpeedMPH,PrecipitationIn,Events,Conditions,WindDirDegrees,DateUTC
12:43 AM,48.2,44.6,87,30.28,10.0,NW,13.8,19.6,N/A,,Overcast,320,2012-11-13 05:43:00
12:53 AM,48.0,43.0,83,30.28,10.0,NW,9.2,-,N/A,,Overcast,320,2012-11-13 05:53:00
1:53 AM,46.0,37.9,73,30.27,10.0,NW,12.7,-,N/A,,Overcast,320,2012-11-13 06:53:00
2:53 AM,45.0,35.1,68,30.27,10.0,NNW,11.5,-,N/A,,Overcast,330,2012-11-13 07:53:00
3:53 AM,43.0,34.0,71,30.27,10.0,NW,11.5,-,N/A,,Overcast,320,2012-11-13 08:53:00
4:53 AM,39.0,33.1,79,30.29,10.0,NW,8.1,-,N/A,,Partly Cloudy,310,2012-11-13 09:53:00
5:53 AM,37.0,32.0,82,30.30,10.0,NW,10.4,-,N/A,,Clear,320,2012-11-13 10:53:00
6:53 AM,35.1,30.0,82,30.31,10.0,NW,6.9,-,N/A,,Clear,310,2012-11-13 11:53:00
7:53 AM,36.0,30.0,79,30.34,10.0,NW,5.8,-,N/A,,Clear,310,2012-11-13 12:53:00
8:53 AM,39.9,28.9,65,30.34,10.0,NW,11.5,-,N/A,,Clear,320,2012-11-13 13:53:00
9:53 AM,45.0,30.0,56,30.35,10.0,NW,11.5,-,N/A,,Clear,320,2012-11-13 14:53:00
10:53 AM,48.9,28.9,46,30.34,10.0,NW,10.4,-,N/A,,Clear,320,2012-11-13 15:53:00
11:53 AM,52.0,28.9,41,30.32,10.0,WNW,6.9,-,N/A,,Clear,300,2012-11-13 16:53:00
12:53 PM,55.0,28.0,35,30.29,10.0,NNE,8.1,-,N/A,,Clear,20,2012-11-13 17:53:00
1:53 PM,57.9,28.9,33,30.27,10.0,NNW,12.7,-,N/A,,Clear,340,2012-11-13 18:53:00
2:53 PM,57.9,30.0,35,30.26,10.0,NNW,8.1,-,N/A,,Clear,340,2012-11-13 19:53:00
3:53 PM,57.9,30.0,35,30.26,10.0,North,6.9,17.3,N/A,,Clear,360,2012-11-13 20:53:00
4:53 PM,55.9,28.9,36,30.27,10.0,NNW,10.4,-,N/A,,Clear,330,2012-11-13 21:53:00
5:53 PM,50.0,30.9,48,30.28,10.0,NNW,6.9,-,N/A,,Clear,340,2012-11-13 22:53:00
6:53 PM,45.0,34.0,65,30.30,10.0,NW,5.8,-,N/A,,Clear,310,2012-11-13 23:53:00
7:53 PM,39.9,35.1,83,30.32,10.0,Calm,Calm,-,N/A,,Clear,0,2012-11-14 00:53:00
8:53 PM,39.9,34.0,79,30.32,10.0,Calm,Calm,-,N/A,,Clear,0,2012-11-14 01:53:00
9:53 PM,39.0,33.1,79,30.33,10.0,Calm,Calm,-,N/A,,Clear,0,2012-11-14 02:53:00
10:53 PM,36.0,33.1,89,30.33,10.0,Calm,Calm,-,N/A,,Clear,0,2012-11-14 03:53:00
11:53 PM,34.0,32.0,92,30.32,10.0,Calm,Calm,-,N/A,,Clear,0,2012-11-14 04:53:00